Location: Alt?nova Orta
(36.9295°N, 30.7847°E)
Time: 04:51:04
(UTC+00:00)

Cosmos 1743 Rocket - Pass Details

Date: 17 February 2020
Orbit: 604 x 632 km, 82.6° (Epoch: 29 March)

Event Time Altitude Azimuth Distance (km) Brightness Sun altitude
Rises 03:32:23 0° 346° (NNW) 2,866 6.8 -14.9°
Reaches altitude 10° 03:34:39 10° 341° (NNW) 1,958 5.9 -14.5°
Maximum altitude 03:38:49 49° 267° (W) 780 3.7 -13.6°
Drops below altitude 10° 03:42:58 10° 192° (SSW) 1,948 6.0 -12.8°
Sets 03:45:13 0° 187° (S) 2,849 7.0 -12.4°
